Location: Observatorio Las Palmas
(29.0667°N, 110.9333°W)
Time: 01:24:55
(UTC-07:00)

Daily predictions for brighter satellites

Satellite Brightness Start Highest point End
(mag) Time Altitude Azimuth Time Altitude Azimuth Time Altitude Azimuth
ATLAS 5 CENTAUR R/B 3.5 03:30:33 38° NNE 03:31:49 42° ENE 03:37:58 10° SE
Cosmos 2237 Rocket 4.2 03:38:15 19° SE 03:38:15 19° SE 03:39:52 10° SE
CZ-4B R/B 4.3 03:31:02 10° NNE 03:35:34 40° E 03:35:34 40° E
GOES 2 Rocket 4.5 03:44:16 50° E 03:44:16 50° E 03:49:17 10° E
Lacrosse 5 4.4 03:54:26 12° N 03:54:26 12° N 03:54:52 10° N
SL-16 R/B 3.9 03:50:39 10° N 03:55:37 30° ENE 04:00:33 10° SE
Cosmos 2227 Rocket 4.2 04:03:30 17° NNW 04:03:30 17° NNW 04:04:55 10° N
NOSS 3-2 (A) 3.9 03:56:36 38° NNW 04:00:06 86° WSW 04:08:19 10° SSE
Cosmos 2297 Rocket 3.7 04:11:35 23° NNW 04:11:35 23° NNW 04:14:03 10° N
USA 215 3.1 04:07:01 10° SE 04:13:35 86° SW 04:16:19 39° NW
Cosmos 1153 Rocket 4.4 04:07:42 10° N 04:14:04 76° W 04:20:26 10° S
OAO 2 Rocket 3.4 04:15:01 74° NNE 04:15:01 74° NNE 04:20:04 10° ENE
CZ-3A R/B 3.6 04:12:28 36° SW 04:16:05 48° S 04:20:25 10° ESE
Cosmos 1898 Rocket 3.6 04:20:20 60° NNW 04:20:20 60° NNW 04:24:53 10° N
Delta 2 Rocket 4.4 04:24:08 36° NNE 04:24:08 36° NNE 04:27:11 10° ENE
Okean O Rocket 3.8 04:20:46 10° N 04:21:34 15° N 04:21:34 15° N
Gbstr 26 Del rocket 4.5 04:23:50 48° W 04:25:27 56° SW 04:33:21 10° SSE
ADEOS Rocket 3.0 04:19:22 10° NNE 04:26:15 88° WNW 04:31:11 17° SSW
Cosmos 858 Rocket 4.5 04:28:13 62° WNW 04:28:13 62° WNW 04:33:17 10° N
CENTAUR R/B 4.4 04:22:48 10° NNW 04:30:11 39° NE 04:37:51 10° ESE
Cosmos 1937 Rocket 3.3 04:29:24 60° SW 04:30:19 77° WNW 04:35:35 10° NNE
NOSS 2-2 (D) 3.4 04:30:45 71° N 04:30:45 71° N 04:34:40 10° NNE
Cosmos 1602 Rocket 4.4 04:29:48 10° SSE 04:34:06 51° E 04:38:23 10° NNE
CZ-4B DEB 4.3 04:33:22 10° N 04:38:38 50° WNW 04:39:25 46° W
NOSS 3-2 (C) 4.0 04:31:47 10° NW 04:39:24 59° WSW 04:47:24 10° S
Genesis I 3.0 04:43:17 71° W 04:43:29 74° WNW 04:47:29 10° NNE
Cosmos 972 Rocket 4.3 04:39:40 10° S 04:44:55 74° ESE 04:50:50 10° NNE
NOSS 2-2 (C) 3.5 04:45:43 51° WNW 04:45:44 51° WNW 04:50:00 10° NNE
PSLV R/B 3.4 04:42:24 10° N 04:46:40 63° WNW 04:47:53 43° SW
NOSS 2-2 (E) 3.8 04:47:11 43° NW 04:47:11 43° NW 04:51:20 10° NNE
Meteor 1-31 Rocket 3.3 04:50:49 10° NNE 04:54:42 60° E 04:58:34 10° S
Cosmos 2228 2.9 04:50:30 10° N 04:54:53 82° W 04:59:13 10° S
Cosmos 2100 Rocket 4.0 04:49:09 10° NNW 04:55:14 55° W 05:01:22 10° SSW
Cosmos 1515 3.6 04:51:55 10° S 04:55:44 86° E 04:59:34 10° N
Cosmos 1802 Rocket 3.9 04:51:59 10° NNW 04:58:03 68° W 05:04:07 10° S
Cosmos 2061 Rocket 4.0 04:52:12 10° NNW 04:58:25 59° W 05:04:39 10° S
NOSS 5 (C) 4.4 04:56:48 28° SSW 04:58:44 88° WNW 05:02:00 10° NNE
ASTRO F (AKARI) 4.0 04:55:44 10° S 04:58:51 73° WSW 05:02:03 10° NNW
OTV 4 0.9 05:01:16 39° S 05:01:16 39° S 05:03:28 10° SE
CZ-4B R/B 4.0 04:57:18 10° NNE 05:01:05 68° E 05:04:44 10° S
Meteor 1-15 Rocket 4.3 04:59:02 10° NNW 05:04:26 52° W 05:09:54 10° SSW
ADEOS II 2.2 04:59:56 10° N 05:05:01 52° WNW 05:10:06 10° SSW
Cosmos 724 4.3 04:59:30 10° NNW 05:05:43 70° WSW 05:11:51 10° SSE
Cosmos 1725 Rocket 4.2 05:00:19 10° N 05:06:36 75° E 05:12:49 10° S
Cosmos 1340 3.5 05:03:08 10° S 05:06:49 53° E 05:10:31 10° NNE
SL-24 R/B 4.4 05:12:21 10° NNE 05:16:18 58° E 05:19:57 10° S
ATLAS 5 CENTAUR R/B 3.3 05:12:20 15° WNW 05:16:23 28° WSW 05:21:49 10° SSW
CZ-4B R/B 4.5 05:12:35 10° NNW 05:16:23 20° WNW 05:17:27 19° W
Cosmos 2237 Rocket 3.9 05:20:18 13° SW 05:20:18 13° SW 05:21:14 10° SW
Cosmos 2058 Rocket 4.2 05:23:17 10° NW 05:26:35 21° W 05:29:53 10° SW
Hubble Space Telescope 3.0 05:25:42 10° SW 05:26:42 11° SSW 05:27:40 10° SSW
Cosmos 2016 Rocket 4.3 05:21:53 10° NNW 05:27:48 44° W 05:33:38 10° SSW
MOS 1 Rocket 3.7 05:23:56 10° N 05:28:42 49° WNW 05:33:43 10° SSW
Aureole 2 Rocket 3.1 05:26:56 10° NW 05:29:38 25° W 05:32:08 10° SSW
USA 129 1.3 05:27:52 10° S 05:29:50 63° W 05:31:40 10° NNW
DELTA 2 R/B (2) 2.9 05:29:58 22° SW 05:30:52 65° SSE 05:32:39 10° ENE
COSMO-SKYMED 1 3.7 05:27:13 10° SSE 05:31:23 47° ENE 05:35:33 10° N
Okean-O 3.8 05:28:27 10° NNW 05:31:58 23° WNW 05:35:27 10° WSW
Meteor 2-17 Rocket 4.5 05:27:16 10° N 05:33:25 86° W 05:39:34 10° S
Thor Agena Rocket 4.4 05:29:22 10° SSW 05:33:53 29° W 05:38:26 10° NW
Cosmos 1825 Rocket 3.7 05:29:47 10° S 05:34:11 82° E 05:38:34 10° N
GOES 2 Rocket 4.3 05:31:58 13° W 05:37:24 70° SSW 05:45:27 10° ESE
COBE Rocket 4.3 05:33:50 10° N 05:38:08 36° WNW 05:42:21 10° SW
Cosmos 192 4.4 05:33:39 10° NNW 05:38:29 57° WSW 05:43:16 10° S
FALCON 9 R/B 4.2 05:32:05 13° W 05:38:45 76° N 06:10:07 10° ENE
SL-16 R/B 3.1 05:34:52 10° NW 05:39:32 27° WSW 05:44:11 10° SSW
Radarsat Rocket 4.0 05:34:45 10° N 05:41:09 71° WNW 05:47:00 10° SSW
Ariane Rocket 3.0 05:38:10 10° N 05:43:17 84° WNW 05:48:23 10° SSW
Cosmos 1066 Rocket 4.4 05:38:12 10° SSW 05:43:37 52° W 05:49:12 10° N
CZ-4 R/B 3.9 05:45:47 10° NE 05:49:15 28° E 05:52:47 10° SSE
Cosmos 1174 3.3 05:49:19 10° NNW 05:52:30 70° WSW 05:56:15 10° SSE
Delta 142 4.0 05:50:27 10° W 05:54:50 44° SSW 05:58:44 10° SE
